QPF
0.01 0.00 0.00 0.01 0.06 0.06 0.05 0.03 0.01 0.00 0.00 0.00 0.01 0.01 0.02 0.02 0.04 0.06 0.03 0.01 0.01 0.01 0.01 0.02 0.02 0.02 0.03 0.02 0.02 0.02 0.02 0.02 0.04 0.06 0.05 0.05 0.06 0.08 0.08 0.08 0.09 0.09 0.11 0.10 0.08 0.07 0.05 0.04 0.07
0.00 0.00 0.01 0.04 0.07 0.06 0.05 0.02 0.02 0.00 0.00 0.00 0.00 0.01 0.02 0.01 0.01 0.02 0.02 0.02 0.01 0.01 0.01 0.01 0.02 0.03 0.03 0.03 0.02 0.03 0.03 0.03 0.04 0.05 0.04 0.05 0.05 0.08 0.10 0.11 0.13 0.14 0.13 0.10 0.07 0.05 0.06 0.07 0.07
0.00 0.00 0.02 0.04 0.04 0.04 0.04 0.03 0.01 0.00 0.00 0.00 0.00 0.01 0.02 0.02 0.01 0.02 0.02 0.01 0.01 0.01 0.01 0.01 0.02 0.03 0.04 0.04 0.04 0.06 0.06 0.07 0.07 0.08 0.06 0.06 0.06 0.08 0.09 0.14 0.18 0.16 0.13 0.09 0.08 0.05 0.05 0.05 0.05
0.01 0.01 0.02 0.03 0.03 0.02 0.01 0.01 0.00 0.00 0.00 0.00 0.00 0.01 0.00 0.01 0.01 0.01 0.01 0.00 0.00 0.01 0.01 0.01 0.02 0.02 0.02 0.04 0.04 0.08 0.09 0.07 0.05 0.07 0.06 0.06 0.06 0.07 0.08 0.12 0.19 0.13 0.09 0.08 0.07 0.04 0.04 0.04 0.04
0.01 0.03 0.03 0.03 0.03 0.01 0.00 0.00 0.00 0.00 0.00 0.00 0.00 0.01 0.02 0.02 0.01 0.01 0.01 0.01 0.01 0.01 0.01 0.01 0.01 0.02 0.02 0.02 0.02 0.06 0.10 0.09 0.07 0.07 0.07 0.08 0.08 0.07 0.07 0.06 0.09 0.09 0.08 0.06 0.06 0.05 0.04 0.04 0.04
0.02 0.03 0.04 0.03 0.03 0.01 0.00 0.00 0.00 0.00 0.00 0.00 0.00 0.01 0.01 0.01 0.01 0.01 0.00 0.00 0.01 0.01 0.02 0.02 0.02 0.02 0.02 0.02 0.03 0.04 0.07 0.09 0.08 0.08 0.08 0.10 0.09 0.08 0.06 0.05 0.05 0.05 0.06 0.06 0.06 0.05 0.05 0.04 0.04
0.04 0.04 0.04 0.03 0.02 0.01 0.01 0.00 0.00 0.00 0.00 0.00 0.00 0.01 0.01 0.01 0.01 0.00 0.00 0.00 0.00 0.00 0.02 0.03 0.02 0.01 0.02 0.02 0.02 0.03 0.04 0.04 0.06 0.07 0.08 0.08 0.09 0.08 0.05 0.05 0.07 0.05 0.05 0.05 0.06 0.06 0.06 0.05 0.05
0.01 0.03 0.03 0.02 0.02 0.01 0.01 0.00 0.00 0.00 0.00 0.00 0.00 0.01 0.01 0.01 0.00 0.00 0.01 0.02 0.01 0.00 0.02 0.02 0.02 0.01 0.01 0.01 0.02 0.02 0.02 0.03 0.04 0.05 0.05 0.07 0.08 0.08 0.04 0.04 0.07 0.06 0.06 0.05 0.06 0.06 0.06 0.07 0.06
0.00 0.02 0.03 0.03 0.02 0.01 0.00 0.00 0.00 0.00 0.00 0.00 0.00 0.00 0.00 0.00 0.00 0.01 0.01 0.02 0.02 0.01 0.02 0.02 0.02 0.01 0.01 0.01 0.01 0.01 0.01 0.02 0.03 0.02 0.03 0.04 0.08 0.07 0.05 0.03 0.05 0.05 0.05 0.06 0.06 0.05 0.06 0.07 0.06
0.00 0.02 0.02 0.02 0.02 0.01 0.00 0.00 0.00 0.00 0.00 0.00 0.00 0.00 0.00 0.00 0.00 0.00 0.01 0.02 0.02 0.02 0.01 0.01 0.02 0.03 0.02 0.01 0.01 0.01 0.02 0.03 0.03 0.03 0.04 0.05 0.05 0.05 0.06 0.05 0.05 0.06 0.07 0.07 0.05 0.05 0.05 0.08 0.09
0.00 0.02 0.02 0.01 0.00 0.00 0.00 0.00 0.00 0.00 0.00 0.00 0.00 0.00 0.00 0.00 0.00 0.01 0.01 0.01 0.01 0.01 0.01 0.01 0.01 0.01 0.01 0.01 0.01 0.02 0.02 0.03 0.04 0.04 0.03 0.04 0.03 0.04 0.06 0.04 0.05 0.07 0.07 0.06 0.04 0.05 0.05 0.07 0.08
0.00 0.00 0.00 0.00 0.00 0.00 0.00 0.00 0.00 0.00 0.00 0.00 0.00 0.00 0.00 0.00 0.01 0.01 0.00 0.00 0.00 0.00 0.00 0.00 0.00 0.00 0.01 0.00 0.00 0.01 0.01 0.01 0.02 0.03 0.02 0.03 0.03 0.03 0.05 0.05 0.05 0.07 0.09 0.08 0.05 0.06 0.06 0.05 0.05
0.00 0.00 0.00 0.00 0.00 0.00 0.00 0.00 0.00 0.00 0.00 0.00 0.00 0.00 0.00 0.01 0.01 0.00 0.00 0.00 0.00 0.00 0.00 0.00 0.00 0.00 0.01 0.00 0.00 0.00 0.01 0.01 0.01 0.02 0.01 0.02 0.02 0.02 0.03 0.05 0.05 0.06 0.07 0.07 0.08 0.09 0.08 0.07 0.06
0.00 0.00 0.00 0.00 0.00 0.00 0.00 0.00 0.00 0.00 0.00 0.00 0.00 0.00 0.00 0.01 0.00 0.00 0.00 0.00 0.00 0.00 0.00 0.00 0.00 0.00 0.00 0.00 0.00 0.00 0.01 0.01 0.01 0.02 0.02 0.01 0.02 0.02 0.02 0.05 0.05 0.06 0.06 0.07 0.08 0.09 0.08 0.07 0.06
0.00 0.00 0.00 0.00 0.00 0.00 0.00 0.00 0.00 0.00 0.00 0.00 0.00 0.00 0.00 0.00 0.00 0.00 0.00 0.00 0.00 0.00 0.00 0.00 0.00 0.00 0.00 0.01 0.01 0.00 0.00 0.01 0.01 0.02 0.02 0.01 0.01 0.01 0.02 0.04 0.05 0.04 0.04 0.05 0.06 0.07 0.06 0.05 0.04
0.01 0.01 0.01 0.01 0.00 0.00 0.00 0.00 0.00 0.00 0.00 0.00 0.00 0.00 0.00 0.00 0.00 0.00 0.00 0.01 0.01 0.00 0.00 0.00 0.00 0.00 0.00 0.01 0.01 0.01 0.01 0.01 0.02 0.01 0.01 0.01 0.01 0.01 0.02 0.03 0.04 0.03 0.03 0.03 0.04 0.05 0.05 0.04 0.03
0.01 0.01 0.01 0.01 0.00 0.00 0.00 0.00 0.00 0.00 0.00 0.00 0.00 0.00 0.00 0.00 0.00 0.00 0.00 0.00 0.00 0.00 0.00 0.00 0.00 0.00 0.00 0.00 0.00 0.01 0.01 0.01 0.01 0.01 0.01 0.01 0.01 0.01 0.02 0.03 0.03 0.03 0.03 0.02 0.02 0.03 0.03 0.03 0.01
0.00 0.01 0.01 0.00 0.00 0.00 0.00 0.00 0.00 0.00 0.00 0.00 0.00 0.00 0.00 0.00 0.00 0.00 0.00 0.00 0.00 0.00 0.00 0.01 0.00 0.00 0.00 0.00 0.00 0.00 0.02 0.01 0.01 0.02 0.01 0.01 0.02 0.02 0.02 0.02 0.02 0.02 0.03 0.02 0.02 0.02 0.02 0.02 0.02
0.00 0.01 0.01 0.00 0.00 0.00 0.00 0.00 0.00 0.00 0.00 0.00 0.00 0.00 0.00 0.00 0.00 0.00 0.00 0.00 0.00 0.00 0.00 0.00 0.00 0.01 0.01 0.01 0.00 0.01 0.02 0.02 0.01 0.01 0.01 0.01 0.03 0.03 0.03 0.03 0.03 0.03 0.03 0.02 0.02 0.03 0.03 0.02 0.02
0.00 0.01 0.01 0.01 0.00 0.00 0.00 0.00 0.00 0.00 0.00 0.00 0.00 0.00 0.00 0.00 0.00 0.00 0.00 0.00 0.00 0.00 0.00 0.00 0.00 0.00 0.00 0.00 0.01 0.01 0.01 0.02 0.01 0.02 0.02 0.01 0.02 0.02 0.02 0.02 0.03 0.03 0.02 0.02 0.03 0.04 0.04 0.02 0.02
0.00 0.01 0.01 0.01 0.00 0.00 0.00 0.00 0.00 0.00 0.00 0.00 0.00 0.00 0.00 0.00 0.00 0.00 0.00 0.00 0.00 0.00 0.00 0.00 0.00 0.00 0.00 0.00 0.01 0.02 0.03 0.03 0.02 0.02 0.02 0.02 0.02 0.03 0.02 0.01 0.02 0.02 0.02 0.03 0.04 0.05 0.05 0.03 0.02
0.00 0.00 0.00 0.01 0.01 0.01 0.01 0.02 0.00 0.00 0.00 0.00 0.00 0.00 0.00 0.00 0.00 0.00 0.00 0.00 0.00 0.00 0.00 0.00 0.00 0.00 0.00 0.00 0.01 0.01 0.01 0.02 0.02 0.01 0.02 0.02 0.02 0.03 0.03 0.02 0.01 0.02 0.03 0.03 0.03 0.02 0.03 0.04 0.03
0.00 0.00 0.00 0.00 0.01 0.01 0.00 0.01 0.01 0.00 0.00 0.00 0.00 0.00 0.00 0.00 0.00 0.00 0.00 0.00 0.00 0.00 0.00 0.00 0.00 0.00 0.00 0.00 0.01 0.01 0.01 0.02 0.03 0.02 0.01 0.02 0.02 0.02 0.04 0.04 0.02 0.02 0.03 0.03 0.03 0.02 0.02 0.04 0.04
0.00 0.00 0.00 0.01 0.02 0.03 0.01 0.01 0.02 0.01 0.00 0.00 0.00 0.00 0.00 0.00 0.00 0.00 0.00 0.00 0.00 0.00 0.00 0.00 0.00 0.00 0.00 0.00 0.01 0.01 0.01 0.02 0.03 0.02 0.01 0.01 0.01 0.02 0.02 0.04 0.03 0.03 0.03 0.04 0.03 0.02 0.02 0.03 0.03
0.00 0.01 0.03 0.03 0.03 0.04 0.01 0.01 0.02 0.01 0.00 0.00 0.00 0.00 0.00 0.00 0.00 0.01 0.00 0.00 0.00 0.00 0.00 0.01 0.00 0.00 0.00 0.00 0.00 0.00 0.01 0.02 0.02 0.02 0.01 0.01 0.01 0.01 0.01 0.03 0.02 0.02 0.03 0.02 0.01 0.01 0.01 0.01 0.02
0.00 0.01 0.03 0.05 0.04 0.03 0.01 0.01 0.01 0.00 0.00 0.00 0.00 0.00 0.00 0.00 0.01 0.01 0.01 0.01 0.00 0.00 0.00 0.01 0.01 0.01 0.00 0.00 0.00 0.00 0.01 0.02 0.02 0.02 0.01 0.01 0.01 0.01 0.01 0.02 0.01 0.01 0.02 0.01 0.01 0.01 0.01 0.01 0.02
0.00 0.00 0.00 0.01 0.02 0.03 0.03 0.01 0.01 0.00 0.00 0.00 0.00 0.00 0.00 0.00 0.01 0.01 0.01 0.02 0.01 0.01 0.01 0.00 0.00 0.00 0.00 0.00 0.00 0.00 0.01 0.02 0.01 0.01 0.01 0.01 0.01 0.01 0.00 0.01 0.01 0.01 0.01 0.00 0.01 0.01 0.01 0.01 0.02
0.00 0.00 0.01 0.02 0.03 0.03 0.02 0.02 0.02 0.02 0.01 0.01 0.00 0.00 0.00 0.00 0.01 0.01 0.01 0.01 0.01 0.01 0.02 0.01 0.00 0.01 0.00 0.00 0.00 0.00 0.01 0.02 0.01 0.01 0.01 0.01 0.01 0.01 0.00 0.00 0.00 0.01 0.01 0.00 0.01 0.01 0.02 0.02 0.02
0.01 0.01 0.01 0.02 0.02 0.04 0.04 0.03 0.02 0.02 0.02 0.01 0.00 0.01 0.01 0.01 0.01 0.01 0.01 0.01 0.01 0.01 0.01 0.01 0.02 0.01 0.01 0.01 0.00 0.00 0.00 0.01 0.02 0.02 0.01 0.01 0.01 0.01 0.01 0.01 0.00 0.00 0.00 0.01 0.01 0.01 0.01 0.02 0.02
0.00 0.01 0.02 0.04 0.03 0.03 0.04 0.03 0.02 0.01 0.01 0.01 0.01 0.00 0.00 0.01 0.01 0.01 0.01 0.01 0.01 0.01 0.01 0.02 0.01 0.01 0.01 0.02 0.02 0.01 0.01 0.01 0.01 0.01 0.01 0.01 0.01 0.01 0.01 0.01 0.01 0.01 0.01 0.01 0.01 0.01 0.01 0.01 0.02
MSLP
1006.73 1007.35 1008.28 1009.43 1010.68 1011.87 1012.89 1013.64 1014.11 1014.31 1014.33 1014.24 1014.14 1014.06 1014.03 1014.02 1014.00 1013.90 1013.70 1013.39 1012.99 1012.54 1012.08 1011.68 1011.34 1011.07 1010.85 1010.66 1010.47 1010.28 1010.09 1009.93 1009.83 1009.82 1009.89 1010.05 1010.27 1010.51 1010.74 1010.93 1011.08 1011.20 1011.32 1011.45 1011.61 1011.81 1012.03 1012.23 1012.42
1007.10 1007.91 1008.99 1010.21 1011.45 1012.56 1013.42 1013.99 1014.25 1014.26 1014.11 1013.91 1013.74 1013.64 1013.62 1013.65 1013.67 1013.63 1013.49 1013.25 1012.93 1012.56 1012.21 1011.89 1011.64 1011.44 1011.27 1011.09 1010.90 1010.69 1010.47 1010.27 1010.14 1010.09 1010.15 1010.30 1010.53 1010.78 1011.02 1011.24 1011.43 1011.58 1011.74 1011.91 1012.11 1012.33 1012.56 1012.78 1012.96
1007.67 1008.64 1009.82 1011.07 1012.25 1013.22 1013.90 1014.25 1014.31 1014.14 1013.86 1013.58 1013.37 1013.27 1013.26 1013.32 1013.38 1013.37 1013.27 1013.08 1012.81 1012.52 1012.25 1012.03 1011.87 1011.76 1011.66 1011.54 1011.38 1011.17 1010.95 1010.73 1010.57 1010.50 1010.53 1010.66 1010.87 1011.11 1011.36 1011.59 1011.80 1011.99 1012.19 1012.40 1012.63 1012.88 1013.14 1013.36 1013.54
1008.39 1009.49 1010.72 1011.94 1013.01 1013.82 1014.31 1014.46 1014.34 1014.03 1013.66 1013.34 1013.12 1013.03 1013.06 1013.14 1013.21 1013.21 1013.12 1012.93 1012.70 1012.46 1012.25 1012.11 1012.05 1012.02 1012.01 1011.96 1011.86 1011.70 1011.49 1011.28 1011.11 1011.02 1011.03 1011.13 1011.31 1011.54 1011.79 1012.02 1012.25 1012.47 1012.69 1012.93 1013.19 1013.47 1013.73 1013.96 1014.13
1009.19 1010.36 1011.59 1012.73 1013.67 1014.31 1014.61 1014.60 1014.34 1013.95 1013.55 1013.23 1013.04 1012.99 1013.05 1013.14 1013.21 1013.19 1013.08 1012.88 1012.64 1012.42 1012.26 1012.19 1012.20 1012.26 1012.34 1012.37 1012.34 1012.23 1012.06 1011.87 1011.71 1011.62 1011.62 1011.71 1011.87 1012.09 1012.32 1012.56 1012.79 1013.01 1013.25 1013.50 1013.77 1014.05 1014.31 1014.53 1014.69
1009.97 1011.15 1012.32 1013.35 1014.14 1014.61 1014.76 1014.63 1014.30 1013.90 1013.52 1013.26 1013.14 1013.15 1013.24 1013.34 1013.39 1013.34 1013.18 1012.95 1012.69 1012.47 1012.33 1012.30 1012.37 1012.51 1012.65 1012.76 1012.79 1012.73 1012.62 1012.47 1012.34 1012.27 1012.28 1012.37 1012.53 1012.74 1012.96 1013.19 1013.41 1013.63 1013.85 1014.09 1014.34 1014.59 1014.83 1015.03 1015.17
1010.63 1011.76 1012.83 1013.72 1014.35 1014.68 1014.72 1014.52 1014.19 1013.82 1013.53 1013.37 1013.34 1013.43 1013.56 1013.68 1013.70 1013.61 1013.41 1013.13 1012.85 1012.62 1012.50 1012.49 1012.61 1012.79 1012.98 1013.13 1013.21 1013.20 1013.13 1013.03 1012.95 1012.91 1012.95 1013.07 1013.24 1013.45 1013.67 1013.89 1014.09 1014.27 1014.46 1014.65 1014.85 1015.06 1015.25 1015.42 1015.55
1011.12 1012.16 1013.09 1013.83 1014.31 1014.51 1014.47 1014.26 1013.97 1013.70 1013.53 1013.49 1013.57 1013.74 1013.92 1014.04 1014.05 1013.93 1013.69 1013.39 1013.10 1012.87 1012.75 1012.77 1012.90 1013.10 1013.31 1013.49 1013.59 1013.62 1013.59 1013.54 1013.50 1013.52 1013.60 1013.76 1013.96 1014.19 1014.41 1014.60 1014.77 1014.91 1015.04 1015.17 1015.31 1015.45 1015.59 1015.72 1015.83
1011.44 1012.35 1013.13 1013.70 1014.05 1014.16 1014.08 1013.89 1013.68 1013.52 1013.48 1013.57 1013.75 1013.99 1014.21 1014.34 1014.35 1014.21 1013.96 1013.65 1013.37 1013.16 1013.06 1013.10 1013.24 1013.44 1013.66 1013.83 1013.94 1013.98 1013.97 1013.95 1013.97 1014.04 1014.18 1014.38 1014.62 1014.87 1015.10 1015.28 1015.41 1015.51 1015.57 1015.63 1015.69 1015.77 1015.85 1015.95 1016.05
1011.63 1012.40 1013.02 1013.45 1013.67 1013.71 1013.62 1013.48 1013.35 1013.31 1013.39 1013.58 1013.85 1014.14 1014.38 1014.51 1014.51 1014.37 1014.13 1013.85 1013.60 1013.43 1013.37 1013.43 1013.58 1013.78 1013.98 1014.13 1014.23 1014.26 1014.27 1014.28 1014.34 1014.46 1014.65 1014.90 1015.18 1015.46 1015.69 1015.87 1015.97 1016.03 1016.03 1016.03 1016.03 1016.05 1016.09 1016.16 1016.25
1011.76 1012.40 1012.87 1013.17 1013.30 1013.29 1013.20 1013.10 1013.06 1013.11 1013.28 1013.54 1013.86 1014.16 1014.40 1014.52 1014.51 1014.38 1014.17 1013.94 1013.74 1013.63 1013.62 1013.71 1013.88 1014.07 1014.25 1014.39 1014.46 1014.48 1014.49 1014.52 1014.61 1014.77 1015.00 1015.30 1015.61 1015.91 1016.16 1016.33 1016.42 1016.45 1016.43 1016.38 1016.34 1016.32 1016.33 1016.39 1016.48
1011.91 1012.43 1012.78 1012.97 1013.02 1012.98 1012.90 1012.84 1012.85 1012.97 1013.19 1013.47 1013.79 1014.08 1014.28 1014.38 1014.36 1014.24 1014.07 1013.89 1013.76 1013.72 1013.78 1013.91 1014.10 1014.30 1014.47 1014.58 1014.64 1014.66 1014.66 1014.70 1014.80 1014.99 1015.25 1015.56 1015.90 1016.21 1016.47 1016.66 1016.75 1016.78 1016.75 1016.69 1016.64 1016.61 1016.62 1016.67 1016.77
1012.11 1012.53 1012.79 1012.89 1012.88 1012.82 1012.75 1012.72 1012.76 1012.91 1013.13 1013.41 1013.68 1013.92 1014.08 1014.14 1014.10 1013.99 1013.86 1013.74 1013.68 1013.71 1013.83 1014.02 1014.24 1014.45 1014.62 1014.73 1014.79 1014.80 1014.81 1014.86 1014.96 1015.15 1015.41 1015.73 1016.07 1016.39 1016.66 1016.85 1016.97 1017.01 1017.01 1016.98 1016.95 1016.94 1016.96 1017.02 1017.12
1012.37 1012.70 1012.87 1012.92 1012.87 1012.79 1012.72 1012.71 1012.77 1012.90 1013.11 1013.34 1013.56 1013.73 1013.84 1013.86 1013.80 1013.70 1013.60 1013.53 1013.54 1013.63 1013.80 1014.03 1014.29 1014.53 1014.72 1014.85 1014.93 1014.96 1014.98 1015.03 1015.13 1015.30 1015.54 1015.83 1016.15 1016.46 1016.72 1016.94 1017.08 1017.17 1017.21 1017.23 1017.25 1017.28 1017.33 1017.41 1017.51
1012.62 1012.87 1012.97 1012.97 1012.90 1012.81 1012.74 1012.73 1012.78 1012.90 1013.06 1013.24 1013.40 1013.52 1013.58 1013.57 1013.50 1013.42 1013.35 1013.32 1013.37 1013.51 1013.72 1013.99 1014.28 1014.56 1014.79 1014.96 1015.08 1015.14 1015.19 1015.24 1015.34 1015.48 1015.68 1015.92 1016.20 1016.47 1016.73 1016.95 1017.12 1017.26 1017.36 1017.44 1017.52 1017.60 1017.69 1017.79 1017.88
1012.79 1012.95 1012.99 1012.95 1012.86 1012.77 1012.71 1012.69 1012.73 1012.83 1012.95 1013.08 1013.20 1013.28 1013.31 1013.29 1013.24 1013.18 1013.14 1013.15 1013.23 1013.39 1013.63 1013.92 1014.24 1014.56 1014.84 1015.08 1015.25 1015.37 1015.46 1015.53 1015.61 1015.71 1015.86 1016.04 1016.25 1016.47 1016.70 1016.92 1017.12 1017.30 1017.46 1017.60 1017.74 1017.88 1018.00 1018.12 1018.22
1012.80 1012.88 1012.87 1012.79 1012.70 1012.61 1012.55 1012.53 1012.56 1012.62 1012.71 1012.81 1012.91 1012.98 1013.02 1013.03 1013.02 1013.00 1013.00 1013.04 1013.14 1013.31 1013.55 1013.85 1014.19 1014.55 1014.89 1015.19 1015.44 1015.63 1015.77 1015.86 1015.94 1016.01 1016.09 1016.20 1016.33 1016.50 1016.68 1016.88 1017.09 1017.30 1017.51 1017.71 1017.90 1018.07 1018.23 1018.36 1018.46
1012.64 1012.64 1012.58 1012.49 1012.40 1012.32 1012.26 1012.23 1012.24 1012.27 1012.33 1012.41 1012.51 1012.60 1012.68 1012.76 1012.81 1012.86 1012.91 1012.99 1013.10 1013.26 1013.50 1013.79 1014.14 1014.52 1014.91 1015.29 1015.62 1015.88 1016.08 1016.21 1016.28 1016.33 1016.35 1016.39 1016.45 1016.55 1016.69 1016.86 1017.06 1017.28 1017.51 1017.75 1017.97 1018.17 1018.35 1018.50 1018.61
1012.34 1012.27 1012.19 1012.10 1012.03 1011.96 1011.90 1011.86 1011.83 1011.82 1011.85 1011.91 1012.01 1012.13 1012.28 1012.44 1012.59 1012.73 1012.85 1012.96 1013.08 1013.24 1013.45 1013.73 1014.07 1014.47 1014.90 1015.33 1015.74 1016.08 1016.34 1016.51 1016.60 1016.62 1016.61 1016.59 1016.59 1016.63 1016.72 1016.86 1017.04 1017.26 1017.49 1017.73 1017.96 1018.17 1018.36 1018.52 1018.65
1011.98 1011.89 1011.81 1011.76 1011.71 1011.66 1011.59 1011.51 1011.43 1011.35 1011.32 1011.34 1011.43 1011.60 1011.82 1012.07 1012.32 1012.56 1012.76 1012.92 1013.07 1013.22 1013.40 1013.65 1013.97 1014.37 1014.82 1015.30 1015.76 1016.17 1016.49 1016.71 1016.82 1016.84 1016.81 1016.76 1016.72 1016.71 1016.76 1016.87 1017.03 1017.23 1017.45 1017.67 1017.88 1018.08 1018.27 1018.44 1018.58
1011.69 1011.62 1011.59 1011.59 1011.59 1011.56 1011.47 1011.33 1011.15 1010.97 1010.84 1010.79 1010.84 1011.01 1011.28 1011.62 1011.98 1012.32 1012.61 1012.84 1013.01 1013.16 1013.32 1013.54 1013.83 1014.21 1014.67 1015.17 1015.67 1016.12 1016.49 1016.75 1016.89 1016.93 1016.91 1016.84 1016.79 1016.77 1016.80 1016.89 1017.02 1017.19 1017.38 1017.56 1017.75 1017.92 1018.09 1018.26 1018.43
1011.57 1011.56 1011.63 1011.72 1011.78 1011.76 1011.63 1011.40 1011.09 1010.76 1010.48 1010.30 1010.27 1010.41 1010.70 1011.10 1011.55 1011.99 1012.37 1012.67 1012.88 1013.05 1013.20 1013.38 1013.64 1013.99 1014.43 1014.93 1015.45 1015.93 1016.33 1016.62 1016.80 1016.87 1016.86 1016.81 1016.77 1016.75 1016.78 1016.87 1016.99 1017.13 1017.27 1017.42 1017.55 1017.69 1017.83 1017.99 1018.17
1011.65 1011.77 1011.97 1012.16 1012.29 1012.27 1012.09 1011.74 1011.26 1010.74 1010.26 1009.91 1009.75 1009.81 1010.08 1010.51 1011.02 1011.55 1012.02 1012.39 1012.66 1012.86 1013.01 1013.18 1013.41 1013.73 1014.14 1014.62 1015.13 1015.61 1016.03 1016.34 1016.54 1016.64 1016.66 1016.64 1016.63 1016.64 1016.69 1016.78 1016.90 1017.02 1017.13 1017.22 1017.31 1017.39 1017.50 1017.63 1017.82
1011.93 1012.21 1012.55 1012.86 1013.04 1013.02 1012.75 1012.26 1011.59 1010.85 1010.15 1009.60 1009.28 1009.22 1009.43 1009.85 1010.41 1011.00 1011.55 1012.00 1012.34 1012.57 1012.74 1012.91 1013.12 1013.42 1013.80 1014.25 1014.73 1015.20 1015.62 1015.93 1016.15 1016.27 1016.32 1016.35 1016.37 1016.42 1016.50 1016.60 1016.72 1016.83 1016.91 1016.97 1017.00 1017.03 1017.09 1017.19 1017.36
1012.33 1012.77 1013.25 1013.65 1013.87 1013.83 1013.48 1012.84 1011.98 1011.02 1010.09 1009.33 1008.83 1008.64 1008.77 1009.15 1009.72 1010.35 1010.96 1011.48 1011.89 1012.17 1012.38 1012.57 1012.78 1013.06 1013.42 1013.84 1014.30 1014.74 1015.14 1015.45 1015.66 1015.80 1015.87 1015.93 1015.99 1016.07 1016.18 1016.31 1016.44 1016.55 1016.61 1016.63 1016.62 1016.61 1016.62 1016.69 1016.84
1012.74 1013.31 1013.89 1014.36 1014.60 1014.52 1014.08 1013.31 1012.28 1011.12 1010.00 1009.05 1008.38 1008.07 1008.10 1008.43 1008.98 1009.63 1010.28 1010.85 1011.31 1011.66 1011.91 1012.13 1012.36 1012.64 1012.99 1013.39 1013.82 1014.24 1014.62 1014.91 1015.12 1015.26 1015.34 1015.41 1015.49 1015.60 1015.74 1015.90 1016.05 1016.16 1016.22 1016.22 1016.19 1016.14 1016.11 1016.15 1016.26
1013.05 1013.70 1014.33 1014.82 1015.05 1014.92 1014.41 1013.53 1012.38 1011.10 1009.83 1008.75 1007.95 1007.53 1007.47 1007.74 1008.25 1008.88 1009.54 1010.14 1010.63 1011.01 1011.31 1011.56 1011.82 1012.12 1012.47 1012.87 1013.30 1013.71 1014.06 1014.34 1014.54 1014.67 1014.75 1014.82 1014.91 1015.04 1015.19 1015.37 1015.53 1015.66 1015.73 1015.75 1015.70 1015.64 1015.59 1015.60 1015.69
1013.20 1013.85 1014.48 1014.95 1015.13 1014.96 1014.40 1013.47 1012.27 1010.93 1009.60 1008.45 1007.59 1007.09 1006.96 1007.16 1007.60 1008.18 1008.80 1009.38 1009.87 1010.26 1010.58 1010.85 1011.14 1011.46 1011.84 1012.26 1012.69 1013.10 1013.46 1013.73 1013.92 1014.04 1014.11 1014.18 1014.26 1014.39 1014.55 1014.74 1014.92 1015.08 1015.18 1015.21 1015.19 1015.14 1015.10 1015.09 1015.16
1013.17 1013.77 1014.33 1014.72 1014.86 1014.65 1014.08 1013.16 1011.99 1010.68 1009.39 1008.26 1007.40 1006.87 1006.68 1006.80 1007.15 1007.63 1008.16 1008.65 1009.08 1009.43 1009.72 1010.00 1010.30 1010.64 1011.04 1011.49 1011.95 1012.38 1012.76 1013.05 1013.24 1013.36 1013.43 1013.49 1013.56 1013.68 1013.84 1014.04 1014.24 1014.43 1014.57 1014.65 1014.68 1014.67 1014.64 1014.65 1014.71
1013.03 1013.52 1013.97 1014.27 1014.35 1014.13 1013.59 1012.75 1011.68 1010.50 1009.32 1008.28 1007.47 1006.95 1006.72 1006.75 1006.98 1007.32 1007.70 1008.05 1008.35 1008.60 1008.81 1009.04 1009.31 1009.66 1010.08 1010.55 1011.05 1011.53 1011.94 1012.27 1012.50 1012.63 1012.71 1012.77 1012.84 1012.95 1013.10 1013.31 1013.53 1013.75 1013.94 1014.08 1014.17 1014.22 1014.25 1014.28 1014.36
Thickness
5795 5798 5797 5784 5760 5744 5740 5749 5758 5757 5760 5769 5771 5767 5758 5751 5742 5731 5755 5768 5769 5767 5764 5762 5761 5761 5761 5762 5763 5763 5764 5764 5765 5765 5766 5766 5766 5766 5767 5767 5767 5767 5768 5767 5768 5768 5768 5769 5770
5798 5800 5789 5771 5746 5731 5734 5751 5752 5757 5764 5771 5771 5767 5759 5752 5757 5753 5758 5765 5768 5766 5762 5759 5758 5758 5758 5759 5759 5760 5761 5762 5762 5762 5762 5763 5763 5764 5764 5764 5764 5764 5764 5764 5764 5765 5765 5766 5767
5796 5796 5776 5760 5746 5736 5737 5752 5755 5763 5770 5769 5764 5764 5756 5750 5756 5755 5760 5765 5766 5763 5759 5756 5755 5754 5755 5755 5756 5757 5758 5759 5759 5759 5759 5760 5760 5760 5760 5761 5761 5761 5761 5761 5761 5762 5762 5763 5763
5793 5783 5772 5753 5742 5750 5753 5756 5761 5760 5764 5768 5764 5755 5754 5760 5759 5760 5763 5764 5762 5760 5757 5753 5752 5751 5751 5752 5752 5753 5754 5755 5756 5756 5756 5756 5756 5757 5757 5757 5757 5757 5757 5757 5757 5758 5759 5759 5760
5790 5770 5752 5743 5745 5755 5762 5765 5766 5759 5759 5763 5760 5747 5744 5757 5763 5763 5762 5762 5760 5758 5755 5751 5749 5749 5748 5748 5748 5749 5750 5751 5751 5752 5752 5752 5752 5753 5753 5754 5754 5754 5754 5754 5754 5754 5755 5756 5756
5773 5765 5741 5734 5742 5754 5762 5767 5765 5759 5759 5761 5757 5748 5743 5757 5758 5759 5761 5760 5759 5757 5754 5749 5747 5746 5745 5745 5745 5745 5746 5747 5747 5748 5748 5748 5748 5749 5750 5750 5750 5750 5750 5750 5750 5750 5751 5752 5752
5764 5754 5742 5742 5741 5747 5758 5768 5762 5757 5755 5758 5762 5747 5745 5752 5757 5759 5759 5758 5757 5756 5753 5749 5746 5744 5743 5742 5742 5742 5742 5743 5744 5744 5744 5744 5745 5745 5746 5746 5746 5747 5747 5747 5746 5747 5747 5748 5748
5776 5756 5745 5744 5741 5744 5761 5766 5766 5761 5756 5767 5765 5748 5741 5750 5758 5758 5756 5754 5753 5752 5751 5750 5748 5745 5742 5740 5740 5739 5739 5740 5741 5741 5741 5741 5741 5742 5742 5742 5743 5743 5743 5743 5743 5743 5743 5744 5745
5778 5750 5738 5743 5744 5748 5762 5761 5765 5770 5763 5762 5763 5758 5755 5758 5757 5752 5748 5747 5747 5748 5749 5749 5748 5746 5743 5741 5739 5738 5738 5738 5738 5738 5739 5739 5739 5739 5739 5739 5740 5740 5740 5740 5740 5740 5740 5741 5742
5767 5742 5745 5757 5760 5757 5761 5760 5762 5760 5753 5752 5754 5757 5759 5756 5752 5746 5743 5741 5741 5743 5746 5748 5747 5746 5743 5742 5738 5738 5737 5737 5737 5737 5737 5737 5737 5737 5736 5736 5737 5737 5737 5737 5736 5737 5737 5738 5738
5765 5751 5757 5764 5768 5766 5761 5760 5765 5755 5745 5751 5750 5751 5753 5751 5749 5746 5744 5743 5742 5744 5745 5747 5747 5745 5743 5740 5738 5737 5736 5735 5735 5736 5736 5735 5734 5734 5734 5733 5733 5733 5733 5734 5734 5733 5734 5734 5735
5764 5763 5765 5766 5770 5766 5761 5761 5759 5755 5754 5763 5762 5758 5753 5749 5747 5746 5745 5744 5744 5743 5743 5744 5745 5744 5742 5739 5737 5736 5735 5734 5733 5733 5733 5732 5731 5731 5731 5731 5731 5731 5731 5731 5731 5730 5730 5731 5731
5761 5761 5767 5769 5769 5767 5764 5759 5757 5756 5764 5767 5763 5758 5752 5749 5748 5748 5749 5748 5745 5741 5741 5742 5742 5741 5739 5737 5735 5734 5732 5732 5732 5731 5731 5730 5729 5728 5728 5728 5727 5727 5727 5727 5727 5726 5726 5726 5725
5764 5764 5764 5767 5765 5765 5759 5757 5757 5755 5765 5762 5758 5754 5752 5750 5749 5748 5747 5745 5744 5742 5741 5741 5740 5739 5738 5735 5733 5732 5731 5730 5729 5729 5729 5728 5726 5726 5725 5724 5723 5723 5724 5724 5723 5722 5721 5720 5719
5769 5757 5756 5761 5763 5763 5758 5746 5753 5761 5763 5757 5754 5752 5751 5750 5749 5748 5747 5746 5745 5743 5742 5740 5739 5738 5735 5733 5731 5730 5729 5728 5727 5726 5726 5725 5724 5723 5722 5720 5719 5719 5720 5720 5719 5718 5717 5715 5714
5761 5748 5736 5752 5760 5762 5748 5731 5754 5764 5760 5752 5752 5751 5748 5748 5749 5750 5750 5747 5746 5744 5742 5740 5739 5736 5733 5731 5729 5728 5726 5725 5724 5723 5723 5722 5721 5720 5718 5717 5716 5716 5716 5715 5714 5713 5711 5709 5708
5745 5734 5735 5745 5760 5759 5748 5737 5753 5764 5758 5751 5750 5749 5747 5747 5748 5749 5750 5748 5747 5745 5742 5738 5736 5733 5731 5729 5727 5725 5724 5722 5721 5720 5719 5719 5718 5717 5715 5714 5713 5713 5712 5711 5710 5708 5706 5703 5702
5733 5737 5739 5740 5754 5754 5745 5744 5754 5761 5758 5753 5752 5750 5748 5746 5747 5750 5750 5749 5747 5745 5742 5738 5735 5732 5730 5727 5725 5722 5720 5719 5718 5717 5716 5716 5715 5714 5712 5711 5710 5709 5708 5706 5705 5703 5702 5701 5700
5747 5741 5737 5744 5758 5750 5743 5745 5752 5759 5756 5753 5751 5750 5748 5748 5751 5752 5750 5748 5745 5742 5740 5737 5733 5730 5728 5723 5719 5716 5714 5714 5714 5714 5713 5713 5712 5711 5709 5708 5707 5706 5704 5703 5702 5700 5697 5696 5696
5745 5738 5737 5746 5757 5750 5743 5746 5756 5759 5756 5755 5753 5751 5750 5750 5749 5749 5748 5745 5743 5740 5737 5735 5732 5729 5727 5723 5720 5717 5715 5713 5712 5712 5711 5710 5709 5708 5707 5705 5703 5702 5700 5699 5698 5696 5693 5692 5693
5742 5739 5737 5737 5748 5752 5742 5737 5748 5756 5760 5759 5758 5756 5755 5751 5748 5746 5745 5743 5741 5738 5736 5734 5731 5729 5726 5723 5720 5716 5712 5710 5708 5707 5706 5707 5706 5705 5704 5702 5701 5699 5697 5695 5694 5693 5690 5688 5689
5733 5747 5744 5739 5731 5728 5737 5714 5736 5749 5748 5751 5752 5753 5753 5753 5751 5747 5744 5741 5739 5737 5737 5734 5731 5728 5725 5722 5717 5712 5707 5704 5704 5704 5704 5704 5704 5702 5701 5699 5698 5696 5694 5692 5691 5691 5689 5687 5684
5741 5750 5745 5740 5732 5726 5735 5722 5730 5746 5739 5745 5749 5751 5753 5752 5750 5746 5744 5741 5739 5737 5735 5732 5729 5726 5724 5720 5716 5712 5709 5707 5706 5704 5702 5701 5701 5700 5698 5697 5695 5694 5692 5690 5689 5688 5687 5685 5683
5749 5745 5741 5739 5729 5708 5730 5725 5720 5736 5741 5745 5749 5751 5750 5750 5748 5745 5743 5739 5736 5735 5732 5729 5726 5723 5721 5718 5715 5712 5708 5706 5703 5701 5698 5697 5697 5697 5696 5695 5693 5691 5689 5687 5686 5684 5683 5682 5681
5742 5725 5707 5703 5702 5708 5736 5728 5724 5743 5752 5751 5748 5748 5749 5747 5743 5739 5736 5734 5731 5729 5728 5725 5722 5719 5718 5716 5714 5711 5709 5706 5702 5700 5697 5695 5694 5693 5693 5692 5690 5688 5686 5685 5683 5681 5680 5679 5678
5736 5729 5704 5691 5697 5710 5729 5723 5731 5750 5753 5753 5751 5748 5746 5743 5740 5736 5733 5730 5728 5726 5725 5722 5719 5716 5715 5713 5712 5711 5709 5705 5703 5701 5698 5696 5693 5692 5691 5690 5688 5686 5684 5682 5680 5678 5677 5676 5675
5729 5728 5734 5714 5708 5702 5716 5726 5734 5744 5743 5743 5743 5741 5738 5738 5736 5734 5731 5728 5726 5723 5721 5720 5717 5714 5712 5711 5710 5709 5707 5704 5702 5700 5699 5696 5694 5692 5690 5687 5685 5683 5681 5679 5677 5674 5673 5672 5671
5738 5732 5722 5709 5693 5688 5705 5715 5713 5723 5728 5731 5732 5732 5733 5733 5732 5730 5727 5725 5723 5721 5718 5716 5714 5711 5710 5708 5707 5706 5705 5703 5701 5699 5696 5694 5692 5690 5688 5685 5682 5680 5678 5676 5674 5672 5670 5668 5666
5725 5722 5719 5712 5709 5689 5683 5698 5727 5724 5727 5725 5727 5728 5729 5728 5727 5725 5723 5722 5720 5717 5713 5711 5709 5707 5705 5704 5704 5702 5701 5700 5699 5696 5694 5692 5690 5687 5685 5682 5680 5678 5675 5673 5671 5668 5667 5664 5662
5728 5721 5715 5695 5696 5700 5688 5692 5730 5727 5726 5724 5723 5724 5726 5725 5724 5721 5718 5717 5714 5711 5708 5707 5706 5704 5702 5701 5700 5698 5697 5696 5694 5692 5691 5689 5687 5684 5682 5680 5677 5675 5673 5671 5668 5665 5663 5661 5659